Theta_e
312 312 312 311 311 311 312 313 314 315 315 317 319 318 315 316 317 319 321 321 322 318 314 314 313 312 311 310 309 309 309 309 309 310 311 311 312 315 318 319 320 321 321 321 321 321 321 321 322 324 325 326 327 327 327 327 326 327 327 326 327 327 325 324 325 325 326 325 323 322 318 318 320 317 316 321 322 320 319 318 316 313 309 306 305 305 305
313 313 312 311 311 311 312 312 312 314 315 316 317 317 316 317 319 319 318 317 315 312 311 310 309 309 308 307 308 307 307 308 308 308 308 308 309 310 313 316 318 319 320 320 320 321 321 321 322 323 324 325 326 326 327 326 326 326 326 325 325 325 324 324 325 325 324 323 321 321 320 320 320 316 317 321 322 320 320 319 316 313 310 308 306 305 305
315 314 313 312 311 312 312 311 311 312 314 315 316 316 315 317 319 317 315 315 312 309 308 308 308 308 307 306 306 306 306 306 306 307 307 306 307 307 309 313 317 318 319 319 320 320 320 321 321 322 323 324 324 326 325 326 326 325 325 324 324 324 324 324 324 323 323 322 321 321 321 321 319 316 316 319 320 319 318 317 314 313 313 312 310 308 307
315 315 315 314 313 313 313 312 311 311 312 314 314 313 312 315 318 318 317 317 313 308 307 307 306 306 306 305 305 305 305 305 305 306 305 305 305 305 307 311 314 316 317 317 318 319 319 319 320 322 323 323 323 323 324 324 325 325 325 325 324 324 324 324 323 322 322 322 321 321 321 320 319 317 316 317 318 317 315 314 313 313 313 313 312 312 312
315 315 316 316 316 317 316 312 309 310 311 312 313 312 310 310 313 317 318 315 310 307 307 306 305 305 305 305 304 304 304 304 304 304 304 304 304 304 306 309 312 313 314 315 317 318 318 319 320 320 322 323 322 322 322 323 323 323 324 323 323 323 324 324 323 323 322 322 321 321 321 320 319 317 316 315 316 315 315 314 314 313 311 310 312 315 315
315 315 316 317 318 318 315 309 307 309 310 310 312 312 309 308 309 311 310 308 306 305 305 305 304 304 304 303 304 304 303 303 303 303 303 303 303 303 304 307 309 309 310 312 314 316 317 318 319 320 321 321 321 321 322 322 322 322 322 322 321 322 322 322 322 321 321 321 321 321 320 319 317 315 314 313 314 315 315 314 314 314 313 314 315 317 317
315 314 316 319 319 315 310 307 306 307 308 308 309 309 307 306 307 306 305 305 304 303 303 302 302 302 302 303 303 303 303 303 302 302 302 302 302 302 303 305 307 307 307 309 311 313 315 316 317 319 319 319 320 321 320 321 321 321 321 321 320 320 321 321 321 321 320 320 319 319 318 317 316 316 315 314 314 315 315 315 316 316 316 316 318 319 318
314 315 316 317 316 311 308 307 307 306 306 307 308 310 308 306 305 305 305 304 303 302 302 302 301 302 302 302 302 302 302 302 302 302 301 301 301 301 302 303 304 305 305 306 307 309 312 314 315 316 316 316 318 319 319 319 320 320 320 319 319 319 319 319 320 320 319 319 318 317 317 316 317 318 318 317 317 317 316 317 318 318 317 318 319 320 320
312 315 315 314 314 312 309 308 306 305 305 305 306 310 309 306 305 305 303 303 303 303 302 302 302 303 303 302 301 301 301 301 301 301 301 301 302 301 302 303 303 303 304 304 304 305 306 308 310 310 311 313 316 316 316 316 317 317 318 318 318 318 318 317 318 318 318 318 319 318 317 318 318 319 319 319 318 317 318 318 317 316 318 320 320 320 320
310 314 315 313 315 314 310 307 306 304 304 303 303 308 310 307 305 304 303 303 303 303 303 303 304 305 305 303 301 300 300 301 301 301 300 301 301 301 302 303 303 303 304 303 303 304 304 304 304 304 305 309 311 312 311 311 312 314 314 314 314 315 315 315 315 316 316 317 318 318 317 318 318 318 318 318 317 316 317 318 317 315 317 319 319 319 319
309 312 314 313 313 312 308 306 305 304 303 302 303 309 312 307 304 304 304 303 304 304 304 304 305 306 305 303 301 300 300 301 301 301 300 300 300 300 301 301 302 303 303 304 304 305 305 304 304 305 305 305 306 306 305 305 306 308 308 308 309 311 312 312 312 313 313 315 316 316 317 317 316 316 316 316 315 315 316 316 316 315 316 316 316 316 316
308 309 311 310 311 309 305 304 304 304 303 303 307 313 313 308 304 304 304 304 304 305 305 305 306 307 305 302 301 300 300 301 301 301 301 301 301 301 300 301 301 301 302 303 303 304 304 303 303 305 306 307 306 305 304 304 304 303 302 302 303 305 306 307 308 308 309 310 311 312 313 313 313 313 313 312 313 314 314 314 315 314 314 314 314 314 314
307 309 310 310 309 306 304 303 303 303 303 307 311 313 309 305 305 305 304 304 305 305 305 306 305 305 304 302 301 300 300 301 301 302 302 302 302 302 302 301 301 302 302 302 302 301 300 300 301 301 304 307 307 305 305 305 304 301 300 300 300 300 301 302 303 304 304 305 305 307 308 309 309 310 310 309 310 311 312 312 312 311 311 311 311 310 310
304 305 308 309 308 305 302 303 303 304 307 311 311 307 304 304 305 305 305 305 305 305 305 304 303 303 303 302 301 301 301 302 301 301 301 301 301 301 301 301 302 302 302 302 301 300 299 299 300 300 301 303 303 303 304 304 302 300 299 299 299 299 300 300 301 302 302 302 303 303 304 305 305 306 307 307 308 308 309 310 310 309 309 309 309 308 308
303 305 307 310 309 304 302 303 304 305 307 308 304 302 303 304 304 304 305 305 305 305 304 302 302 303 302 301 301 301 301 301 300 300 299 299 299 299 299 299 300 301 301 301 301 300 299 299 299 299 301 301 300 301 302 300 299 298 298 298 298 298 298 298 299 299 300 300 300 301 301 301 301 302 302 303 303 304 304 305 306 306 307 307 308 308 307
304 307 308 307 305 302 301 303 304 303 302 302 301 302 303 304 304 305 305 304 305 305 303 302 302 302 301 301 301 300 300 300 300 299 299 299 299 298 298 298 298 299 299 299 299 299 298 298 298 298 299 299 299 300 299 298 297 298 298 297 297 297 297 298 298 298 298 298 298 298 299 299 299 299 299 299 299 300 300 300 300 301 301 302 303 303 303
303 305 304 303 302 301 301 301 302 301 301 301 301 302 303 303 304 304 304 303 304 303 303 302 301 301 301 301 300 300 300 300 299 299 299 299 299 298 298 298 298 297 298 297 297 297 297 297 297 297 297 298 298 298 297 297 297 297 297 297 297 297 297 297 297 297 297 297 297 298 298 298 298 298 298 298 298 298 298 298 298 298 298 299 299 299 299
302 303 302 301 301 301 301 301 301 301 301 301 302 302 302 302 303 303 303 302 302 301 301 301 301 301 301 301 301 300 300 299 299 299 299 299 299 298 298 298 298 297 297 297 297 296 296 296 296 296 296 296 297 296 296 296 296 296 296 296 296 296 296 296 296 296 296 296 297 297 297 297 297 297 298 298 298 298 298 298 298 298 298 298 298 298 298
302 303 302 301 301 301 301 301 301 301 301 301 301 302 302 301 302 302 301 301 301 301 301 301 300 301 301 301 301 300 300 299 299 299 299 298 298 298 298 298 297 297 297 297 297 296 296 296 296 296 296 296 296 296 296 296 296 295 295 296 296 296 296 296 296 296 296 296 296 296 296 296 296 297 297 297 297 297 297 297 297 297 297 297 297 297 297
302 302 301 300 301 301 301 301 301 301 301 301 301 301 301 301 301 301 301 301 301 300 300 300 300 300 301 301 300 300 299 299 299 299 299 298 298 298 298 297 297 297 297 297 297 297 296 296 296 296 296 295 295 295 295 295 295 295 295 295 295 295 296 296 296 295 295 295 295 295 295 296 296 296 296 296 296 296 296 296 296 296 296 296 296 296 296
302 301 301 301 302 302 301 301 301 301 301 301 301 301 301 301 301 301 301 301 300 300 300 300 299 300 300 300 300 299 299 299 299 299 298 298 298 298 298 297 297 297 297 297 297 297 297 297 296 296 296 295 295 295 295 295 295 295 295 294 295 295 295 296 296 295 294 294 295 295 296 296 296 295 295 296 296 296 296 296 296 296 296 296 296 296 296
302 302 302 302 302 302 301 301 301 301 302 302 302 302 302 302 302 302 301 301 300 300 300 299 299 299 299 299 299 299 299 299 299 299 298 298 298 298 297 297 297 297 297 297 297 297 297 297 296 296 296 296 296 296 296 296 295 295 295 294 294 295 295 295 295 295 294 295 295 295 296 296 296 296 296 296 296 296 296 297 296 296 297 296 297 297 297
302 302 301 301 302 302 302 301 302 302 302 302 302 302 302 302 301 301 301 301 300 300 300 299 299 299 299 299 299 299 299 299 299 299 299 298 298 298 298 297 297 297 297 297 297 297 297 297 297 296 296 296 296 296 296 296 296 295 295 294 294 295 295 295 295 295 295 295 295 295 296 296 296 296 296 296 297 297 297 297 297 297 297 297 297 297 297
302 301 301 301 302 302 302 302 303 303 302 301 300 301 301 301 301 300 300 300 300 300 300 300 299 300 300 299 299 299 299 299 299 299 298 298 298 298 297 297 297 297 297 297 297 297 297 297 296 296 296 296 296 296 296 296 296 295 295 294 294 294 295 295 295 295 295 295 295 296 296 296 296 297 297 297 297 297 297 297 298 298 297 297 297 297 297
302 301 301 302 302 302 302 302 302 302 301 300 300 300 301 301 301 300 300 300 299 300 300 300 300 299 299 298 298 297 297 298 298 298 298 298 298 298 297 297 297 297 297 297 297 297 297 297 296 296 296 296 296 296 296 296 296 296 295 294 294 294 295 295 295 294 294 295 295 296 296 296 296 297 297 297 297 297 297 298 298 298 298 298 298 298 298
301 301 301 301 301 300 300 300 300 300 300 300 300 300 300 300 300 300 299 300 300 300 300 299 299 298 297 296 296 296 295 296 297 298 298 298 298 297 297 297 297 297 297 297 297 297 297 297 297 297 296 296 296 296 296 296 296 296 295 295 294 294 294 294 294 294 294 295 295 295 296 296 296 296 296 296 296 297 297 298 298 298 298 298 298 298 298
301 301 300 301 300 299 299 300 300 300 299 299 299 299 299 299 299 299 299 299 299 299 299 298 297 297 296 296 295 295 295 294 295 296 297 298 298 297 297 297 297 297 297 297 297 297 297 297 297 297 296 296 296 296 296 296 296 296 295 295 294 294 294 293 293 293 294 294 294 294 295 295 295 296 296 297 297 297 297 298 298 298 298 298 298 297 297
301 301 301 301 301 300 300 300 300 299 299 299 298 298 298 298 298 298 298 299 299 298 298 297 297 296 296 295 295 294 294 294 294 295 296 297 297 297 297 297 297 298 297 297 297 297 297 297 297 297 297 296 296 296 296 296 296 296 295 294 294 294 294 293 293 293 293 293 294 294 294 294 295 295 296 296 297 297 297 297 297 298 298 298 297 297 297
301 301 301 301 301 300 300 300 300 300 299 299 299 298 298 298 298 298 298 298 298 298 297 297 296 296 295 295 294 294 294 294 294 295 296 297 297 297 297 297 297 297 297 297 297 297 296 297 297 297 297 297 296 296 296 296 296 296 295 294 294 294 294 294 294 293 293 294 294 294 294 294 295 295 296 296 296 296 296 297 297 297 297 297 297 297 297
301 301 301 301 301 301 301 300 300 300 300 299 299 298 298 297 297 297 297 297 298 298 297 297 296 296 295 294 294 294 294 294 294 295 295 295 295 296 296 297 297 297 297 297 297 297 296 296 297 297 297 297 297 296 296 295 295 296 295 294 294 294 294 294 294 294 294 294 294 294 294 294 295 295 296 296 296 296 296 296 297 297 297 297 297 296 296
301 300 300 300 300 300 300 300 300 300 299 299 299 298 298 297 297 297 297 297 297 297 297 296 296 296 295 294 294 294 294 294 295 295 294 294 294 294 295 295 295 295 296 296 295 295 295 295 296 296 297 297 297 297 296 295 295 295 295 294 294 294 294 294 294 294 294 294 294 294 294 294 295 295 295 295 295 295 296 296 296 296 296 296 296 295 295
300 299 299 299 299 299 299 299 299 299 299 299 298 297 297 297 297 297 297 296 297 297 297 296 296 295 295 294 294 294 294 294 294 294 294 294 294 293 293 292 292 292 293 293 293 292 292 293 294 295 296 297 297 297 297 296 295 295 295 294 294 295 295 294 294 294 294 294 294 294 294 294 295 295 295 295 295 295 295 295 295 295 295 295 295 295 295
299 299 299 299 298 298 298 298 298 298 298 298 298 298 297 297 297 297 296 296 296 296 296 296 296 295 294 294 294 294 295 294 294 293 292 292 291 291 290 289 289 289 289 290 290 291 292 292 293 294 296 297 297 297 297 296 295 295 295 294 294 295 295 295 294 294 294 294 294 294 294 294 294 295 295 295 295 295 295 295 294 295 295 295 295 295 295
298 298 298 298 298 298 298 298 298 298 298 298 298 298 297 297 297 297 297 296 296 296 296 296 296 295 294 294 294 294 295 294 293 293 292 292 291 291 290 289 289 289 289 289 290 292 293 294 294 294 296 297 297 297 297 296 294 294 295 294 294 294 295 295 295 295 294 294 293 293 293 294 294 295 295 295 295 294 294 294 294 295 295 295 295 295 295
297 298 298 298 298 298 298 298 298 297 297 297 297 297 297 297 297 297 296 296 296 296 296 296 295 294 294 294 294 294 295 294 293 293 293 293 293 293 292 291 290 289 289 289 289 291 293 294 294 294 295 297 297 297 297 296 294 294 295 294 294 294 294 294 294 294 294 293 293 293 293 294 294 294 294 294 294 294 294 294 295 295 295 295 295 295 295
298 298 298 298 298 298 298 298 297 297 297 297 297 297 297 297 297 297 296 296 296 296 296 296 295 294 294 294 294 294 294 294 293 293 293 293 293 293 293 292 291 290 290 290 289 289 292 294 295 295 295 297 297 297 297 296 294 294 294 295 294 294 294 294 293 293 293 293 293 292 293 293 294 294 294 294 294 294 294 294 294 294 294 294 295 295 295
297 298 298 298 298 298 297 297 297 297 297 297 297 297 297 297 297 297 296 296 296 296 296 296 295 295 294 295 294 295 295 294 293 293 293 293 293 293 293 292 292 291 291 291 291 290 291 294 295 295 295 296 297 297 297 296 295 293 294 295 294 294 294 294 293 293 293 293 293 292 292 293 293 294 294 294 294 293 294 294 294 294 294 294 294 294 294
297 297 297 297 297 297 297 297 297 297 297 297 297 297 296 296 296 296 297 296 296 296 296 296 296 295 295 295 295 295 295 294 294 293 293 293 293 293 293 292 291 291 292 293 293 293 293 294 295 295 296 296 297 297 297 296 295 293 294 295 294 294 294 294 294 293 293 293 293 292 292 293 293 293 294 294 294 293 293 293 293 294 294 294 294 294 294
297 297 297 297 297 297 297 297 297 297 297 297 297 297 297 297 297 296 296 296 296 296 296 296 296 296 295 295 295 295 295 294 294 294 294 293 293 293 292 291 292 293 294 294 295 295 294 294 295 295 296 296 296 296 297 296 295 293 294 295 294 294 294 294 294 293 292 292 293 292 292 293 293 293 294 294 293 293 293 293 293 293 294 294 294 294 294
297 297 297 297 297 297 297 297 297 297 297 297 297 297 297 297 296 296 296 296 296 296 296 296 296 296 296 295 295 295 295 295 294 294 294 294 293 292 292 292 292 293 294 295 295 295 295 294 295 295 296 296 296 296 297 296 294 293 293 295 295 294 294 294 293 293 293 292 292 293 292 292 293 293 293 293 293 293 294 294 293 293 294 294 294 293 293
297 297 297 297 297 297 297 297 297 297 297 297 297 297 297 297 296 296 296 296 296 296 295 295 296 296 296 295 295 295 295 295 295 295 294 294 293 292 292 292 292 293 293 295 295 295 295 295 295 295 296 296 296 296 297 296 294 292 293 294 295 295 294 294 293 293 293 292 292 292 292 292 292 292 293 293 293 293 293 294 294 294 294 294 293 293 293
297 297 297 297 297 297 297 297 297 297 297 297 297 297 297 297 297 297 296 296 296 296 296 295 295 295 295 295 295 295 295 295 295 295 294 294 294 293 292 292 292 292 293 294 295 296 295 295 295 295 296 296 296 296 296 296 294 292 292 294 295 295 295 294 293 293 292 292 292 292 292 292 293 292 292 292 293 293 293 294 294 293 294 294 293 293 293
297 297 297 297 297 297 297 297 297 297 297 297 297 297 297 297 297 297 296 296 296 296 296 296 295 295 295 295 295 295 295 295 295 295 295 294 294 293 292 291 292 292 292 293 294 296 296 295 295 295 296 296 296 296 296 296 294 292 291 293 295 295 294 295 294 292 292 291 291 292 292 292 292 293 293 293 293 293 293 294 293 293 293 293 293 293 293
297 297 297 297 297 297 297 297 297 297 297 297 297 297 297 297 297 297 297 297 297 296 296 296 296 296 296 296 296 296 295 295 295 295 295 294 294 294 292 291 292 292 292 292 293 294 295 296 296 296 296 296 295 295 295 295 293 291 291 292 295 295 294 294 294 293 292 291 291 291 291 292 292 292 292 293 293 293 293 293 293 293 293 293 293 293 293
297 297 297 297 297 297 297 297 297 297 297 297 297 297 297 297 297 297 297 297 297 297 296 296 296 296 296 296 296 296 296 295 295 295 295 295 295 294 293 292 292 292 292 292 292 292 293 294 295 295 295 294 294 293 293 292 292 291 290 291 294 295 294 294 294 294 293 292 291 290 290 291 292 291 291 291 292 292 293 293 293 292 292 293 293 292 292
297 297 297 297 297 297 297 297 297 297 297 297 297 297 297 297 297 297 297 297 297 297 297 296 296 296 296 296 296 296 296 296 295 295 295 295 295 295 294 293 293 292 292 292 292 291 292 292 293 293 292 292 291 291 291 291 291 291 290 291 293 294 294 295 294 294 294 293 293 291 290 289 290 291 291 291 291 291 292 292 292 292 292 293 293 292 292
297 296 296 296 296 296 297 297 297 297 297 297 297 297 297 297 297 297 297 297 297 296 296 296 296 296 296 296 296 296 296 296 296 296 296 296 295 295 295 294 294 293 292 292 292 292 291 292 292 292 291 291 290 290 289 289 290 291 290 290 291 293 294 294 294 294 294 293 293 293 291 289 288 289 289 290 291 291 291 291 291 291 292 292 292 293 293
297 296 296 296 296 296 297 297 297 297 297 297 297 297 297 297 297 296 296 296 297 296 296 296 296 296 296 296 296 296 296 296 296 296 296 296 296 296 295 295 294 294 293 292 292 292 291 291 291 292 292 292 292 291 289 288 288 289 290 290 290 291 293 294 294 294 293 293 293 293 292 290 289 288 288 289 290 290 291 291 290 291 291 291 291 292 292
297 296 296 296 297 297 297 297 297 297 297 297 297 297 296 296 296 296 296 296 296 296 296 296 296 296 296 296 296 296 296 296 296 296 296 296 296 296 296 295 295 294 293 292 292 292 291 291 290 290 291 292 292 292 290 288 287 287 289 289 289 290 292 293 293 292 292 292 293 293 292 291 289 288 288 288 288 288 289 289 290 290 290 290 290 290 291
296 296 296 296 296 297 297 297 297 297 297 297 297 297 296 296 296 296 296 296 296 296 296 296 296 296 296 296 296 296 296 296 296 296 296 296 296 296 296 296 295 294 293 292 291 291 290 290 289 289 290 291 291 290 288 287 287 287 288 288 289 290 291 292 292 291 290 290 291 292 292 291 289 288 287 287 287 287 287 288 288 288 289 289 289 289 289
296 296 296 296 296 296 296 296 297 297 297 297 297 297 297 296 296 296 296 296 296 296 296 296 296 296 296 296 296 296 296 296 296 296 296 296 296 296 296 296 295 293 293 293 292 291 289 288 288 288 288 288 288 287 286 286 286 287 287 288 289 290 291 290 290 289 289 289 290 291 291 291 289 288 287 287 287 287 287 287 287 287 288 288 288 288 288
296 296 296 296 296 296 296 296 296 296 297 297 297 297 297 296 296 296 296 296 296 295 295 295 295 296 296 296 296 296 296 296 296 296 296 295 295 295 295 296 295 293 292 293 293 293 291 289 288 287 287 287 287 286 286 286 286 286 287 288 288 289 289 289 289 289 288 288 289 289 290 289 289 288 287 287 287 287 287 287 287 287 287 287 287 287 287
Wind_Speed
5 4 4 5 6 6 7 8 8 9 10 7 5 3 4 4 1 2 7 10 8 5 6 7 7 8 9 10 11 11 10 10 11 15 17 16 16 17 17 15 14 14 13 12 11 10 10 11 12 12 11 12 13 13 12 12 13 13 14 16 16 15 16 18 18 18 19 21 21 20 20 19 18 16 16 16 16 13 10 9 8 7 6 6 9 11 12
6 5 4 6 7 7 9 10 10 9 9 9 9 7 6 6 5 6 10 11 8 5 5 7 8 10 11 13 13 13 13 12 13 16 17 17 17 19 19 18 17 16 14 13 12 11 11 12 14 14 13 13 13 14 14 14 15 15 15 15 16 16 17 18 20 21 21 22 22 22 21 21 21 19 17 16 16 14 11 10 9 8 8 7 8 10 11
3 5 4 5 7 8 10 12 12 10 9 9 8 7 7 7 8 9 10 10 6 4 6 8 9 12 14 14 14 14 13 12 14 16 17 16 17 18 20 20 18 16 15 13 12 12 12 13 13 14 13 12 12 13 13 13 15 16 16 16 17 17 18 18 19 20 21 22 22 21 22 22 20 18 17 14 13 13 12 10 10 9 9 8 8 9 10
1 3 4 2 3 6 8 11 13 12 8 6 5 5 4 4 4 8 7 5 3 4 6 9 11 14 16 15 15 15 13 13 14 16 17 16 17 19 20 20 18 16 15 14 13 13 14 14 15 14 12 11 11 11 11 11 13 13 13 15 16 16 17 17 17 17 19 21 21 21 21 20 18 16 17 18 17 16 15 13 11 10 10 10 9 9 9
2 2 4 2 0 2 2 6 8 9 7 4 2 3 5 6 2 4 4 3 4 5 7 8 10 12 13 14 14 13 13 14 15 16 16 17 17 19 20 21 20 19 19 19 17 15 14 14 15 15 13 11 11 11 10 10 10 9 9 10 10 11 13 14 14 15 17 18 18 18 18 18 16 13 13 16 18 16 15 14 13 12 10 9 10 9 10
3 2 3 1 2 2 1 2 6 6 6 5 3 3 6 6 3 4 5 6 6 6 6 7 9 12 14 15 15 13 13 15 17 17 17 18 18 19 22 23 22 21 21 21 21 19 18 17 16 14 13 13 13 11 9 8 9 8 8 7 6 6 7 8 8 9 12 14 15 17 16 15 13 10 11 15 17 16 15 15 16 16 13 11 11 11 11
3 2 0 2 2 0 2 2 4 5 4 5 4 4 6 6 6 9 9 8 8 9 10 11 14 18 21 20 18 17 15 16 19 19 19 20 21 22 24 24 22 22 22 23 23 22 22 21 18 15 14 16 16 13 11 11 10 9 8 8 9 9 8 7 6 7 9 11 12 14 15 14 12 11 12 15 15 16 16 16 17 16 14 13 12 12 12
2 3 1 2 2 1 3 2 5 4 3 4 3 3 5 6 4 8 10 9 9 12 14 15 17 22 27 25 21 19 17 18 21 22 22 23 24 25 26 27 26 24 23 24 26 25 23 23 22 20 19 19 18 16 15 14 12 11 10 11 12 11 11 11 9 9 11 12 11 11 11 11 11 10 11 12 13 15 15 15 13 13 13 12 12 12 12
1 3 4 3 3 3 2 2 4 3 2 4 3 1 3 4 2 7 10 10 11 14 15 17 19 22 25 22 17 16 18 20 22 24 25 25 25 26 28 30 30 28 27 28 28 28 28 27 26 24 23 22 20 20 20 19 18 17 15 16 16 14 13 13 12 11 11 12 11 9 8 7 8 8 8 10 11 12 13 14 14 13 12 12 13 13 13
0 2 4 3 2 2 2 4 3 2 4 6 4 2 1 2 4 8 10 11 12 14 15 16 14 12 14 10 7 12 18 21 23 25 25 26 25 25 26 28 28 27 27 27 27 27 28 29 28 26 24 22 22 23 24 23 23 22 21 21 20 18 16 16 14 12 11 10 9 7 6 7 7 7 8 8 8 8 10 13 13 13 13 12 12 13 13
1 2 3 2 1 2 3 6 7 7 8 6 5 2 1 2 7 10 11 12 13 14 15 12 7 2 5 4 5 11 17 20 22 24 25 25 24 24 24 24 24 24 22 22 22 22 24 25 23 20 19 20 23 24 23 23 23 23 22 22 20 19 18 16 15 14 12 10 9 8 7 7 7 7 7 7 7 7 8 8 9 10 10 10 10 10 10
2 2 3 2 2 3 4 7 12 13 9 4 4 1 2 3 8 11 11 12 14 13 12 7 2 1 5 8 10 14 17 19 19 19 20 21 21 21 21 20 20 20 19 19 19 19 20 20 18 15 13 14 18 20 19 19 20 21 20 19 18 17 16 14 13 12 12 10 9 8 8 8 7 6 5 5 5 5 6 6 6 6 7 7 8 9 9
3 3 3 3 3 2 5 11 15 13 6 3 2 1 3 0 7 11 11 13 15 12 8 3 2 6 13 19 19 18 18 20 18 16 16 17 16 17 17 16 16 16 17 18 19 20 20 18 17 15 11 9 12 14 13 14 17 18 18 16 15 14 12 11 10 9 8 8 7 7 7 6 5 4 3 3 4 4 5 5 5 6 6 7 8 9 9
2 2 2 2 3 2 9 16 15 8 2 2 1 5 6 3 6 10 11 13 13 8 3 4 12 20 24 25 22 18 18 20 19 17 17 17 17 16 16 16 15 14 16 16 17 19 19 18 17 16 12 11 12 12 11 14 16 16 15 14 13 11 10 8 7 6 5 4 4 3 2 2 2 3 3 5 5 6 7 8 8 9 10 11 11 12 13
1 2 3 3 2 4 14 16 9 5 4 3 6 9 6 1 8 10 9 9 8 6 9 16 23 27 26 23 22 22 21 21 20 19 19 19 19 18 17 17 15 14 15 16 16 17 17 16 16 14 13 12 13 11 12 15 16 14 13 12 11 9 8 7 6 5 4 3 2 1 0 1 2 3 4 6 7 8 9 10 12 13 14 15 16 17 18
2 3 3 3 1 6 12 10 3 3 6 6 7 7 3 6 8 9 8 6 6 11 20 25 24 24 24 24 24 23 22 21 20 20 19 18 18 17 16 16 14 13 14 15 15 15 15 14 15 14 12 11 11 11 13 15 14 12 12 10 9 7 6 6 5 4 3 3 2 1 2 2 3 4 5 6 7 8 9 10 11 13 14 15 17 18 19
3 4 3 1 3 7 9 7 4 3 5 6 4 2 6 8 7 7 9 10 12 17 24 25 23 23 24 24 23 22 21 20 20 19 18 17 16 15 15 14 14 14 15 15 15 15 15 14 14 13 12 12 11 12 14 14 13 12 11 9 7 7 6 6 5 5 4 4 3 3 3 3 4 5 6 7 7 8 9 9 10 11 12 13 15 16 17
4 6 6 4 5 8 9 8 7 6 7 7 6 7 10 10 9 9 11 15 18 19 22 23 23 22 22 21 21 20 20 20 19 18 17 15 15 14 14 13 13 13 15 15 16 18 17 16 15 14 14 14 14 15 16 15 13 12 11 10 9 9 8 8 7 7 6 5 5 5 4 4 4 4 5 6 6 7 7 8 8 9 9 10 11 12 13
2 4 6 6 6 7 8 9 11 12 12 11 10 12 15 14 12 12 14 18 20 20 20 20 19 19 18 18 19 19 19 19 18 17 16 15 15 14 14 13 12 12 13 14 16 18 19 18 17 16 16 17 18 18 17 16 15 14 14 13 13 12 12 11 10 9 8 7 7 6 6 6 5 5 4 4 5 5 5 5 6 6 7 7 8 9 9
2 3 4 5 8 10 10 11 13 14 15 15 13 14 16 16 15 15 16 19 20 20 19 17 16 16 16 17 19 19 19 18 17 16 16 15 14 14 13 12 11 11 12 14 15 16 18 17 17 16 17 17 18 18 17 17 16 15 14 14 13 13 13 12 11 10 9 9 8 8 8 7 7 7 7 7 7 7 7 7 8 8 8 9 9 9 10
3 3 3 5 9 11 11 13 14 15 15 16 15 15 16 17 18 18 18 18 19 18 17 15 13 14 14 15 17 17 17 16 15 15 15 14 14 13 12 10 10 10 11 12 13 15 16 16 16 16 16 17 16 16 17 16 16 15 15 14 13 12 12 11 11 10 9 9 9 9 10 10 9 9 9 8 8 9 9 9 9 9 10 10 11 11 10
4 3 3 3 4 6 8 11 14 15 15 16 16 17 17 18 18 18 17 17 17 16 15 13 12 13 13 13 14 14 14 13 12 12 12 12 12 12 11 10 9 8 9 10 11 12 14 14 14 15 15 15 16 16 16 16 16 16 15 15 14 13 12 11 10 9 8 8 8 9 11 11 11 11 11 11 11 11 11 11 11 11 11 11 11 12 11
4 3 5 6 6 7 9 11 13 13 13 14 16 16 16 16 16 15 15 16 15 14 13 12 11 12 12 12 11 11 11 10 10 9 9 10 10 10 10 10 10 9 8 7 7 9 10 11 11 12 13 13 14 14 14 15 15 15 15 15 15 15 13 12 10 9 8 7 8 8 9 10 11 11 11 11 12 12 13 13 13 13 12 12 11 12 11
5 6 8 9 10 10 10 10 10 9 10 12 13 13 13 13 12 12 12 13 13 13 13 12 11 10 10 10 9 8 7 7 7 7 7 8 9 9 10 9 9 9 8 7 6 6 6 6 7 8 9 10 10 10 11 11 12 13 14 14 15 16 15 12 10 8 7 7 7 7 8 8 9 9 9 10 11 12 13 14 14 13 12 11 11 11 12
7 8 8 10 11 12 11 9 8 8 8 9 10 10 10 10 9 9 10 10 11 13 13 13 12 10 9 9 7 6 4 4 4 6 7 8 9 9 9 9 8 7 7 5 5 4 5 4 4 5 6 7 8 8 9 10 11 13 14 15 16 16 15 11 9 7 6 6 7 7 7 8 8 8 9 10 11 11 11 11 12 12 12 12 11 11 12
9 10 11 12 12 11 10 9 8 8 8 8 8 8 9 9 9 9 9 9 10 11 12 12 11 10 8 7 6 4 3 1 3 5 7 9 10 10 10 9 8 6 5 4 3 2 4 5 3 3 5 7 8 8 9 10 11 12 14 14 15 15 13 9 7 6 6 6 7 7 7 8 8 9 10 10 10 10 9 9 10 11 12 12 13 14 14
10 11 11 10 9 8 8 8 9 9 8 7 8 8 8 8 8 9 10 10 10 10 10 9 8 7 6 5 4 4 3 2 1 4 7 9 11 12 11 9 8 6 4 2 2 1 3 4 2 1 3 6 7 7 7 8 10 11 12 13 13 13 11 9 7 6 6 6 7 7 7 8 9 10 10 11 11 10 9 9 10 11 11 12 13 14 15
9 8 6 4 6 8 7 7 8 8 6 5 6 5 5 6 6 6 7 9 9 9 8 7 6 5 4 3 3 4 4 4 3 2 3 5 8 11 12 11 9 7 4 2 0 0 2 4 3 1 1 3 5 6 6 6 8 9 10 11 11 11 9 8 8 7 7 8 9 9 8 8 10 10 10 10 10 10 10 11 11 11 10 10 11 11 12
4 4 6 4 6 8 5 5 6 6 4 4 4 4 4 4 4 3 4 5 6 6 5 5 4 3 2 2 3 4 5 7 6 5 5 3 3 7 10 10 9 7 6 5 3 1 1 3 4 3 2 1 3 5 5 5 6 7 8 9 9 8 7 6 7 7 7 8 10 10 9 8 8 8 8 8 9 10 10 10 10 10 9 8 8 9 9
2 3 5 4 5 6 4 3 5 5 4 5 5 4 3 3 2 2 2 3 4 5 5 3 2 1 2 2 3 3 4 5 4 4 3 3 3 5 6 8 8 8 8 8 6 5 4 4 5 5 4 3 2 3 4 4 4 5 6 7 8 7 5 4 4 6 6 7 8 9 8 7 7 7 7 8 9 10 10 10 9 9 9 9 9 10 11
1 1 3 3 2 3 2 2 3 4 5 6 7 6 5 4 2 2 2 3 4 6 6 4 2 1 1 1 2 2 2 2 1 0 1 1 2 4 5 7 9 10 10 11 11 10 9 8 8 7 6 5 3 3 4 4 4 5 5 6 8 7 5 3 2 3 4 5 6 7 7 6 7 7 7 7 9 9 10 9 9 9 10 10 11 11 12
3 1 1 2 1 1 2 3 3 5 6 8 8 7 6 5 4 3 3 3 4 6 6 4 2 2 2 1 1 1 1 2 3 4 4 4 5 6 7 8 10 11 13 13 13 13 12 11 11 9 8 6 5 4 4 5 5 4 5 6 7 7 6 4 2 2 4 4 4 5 6 6 7 7 7 8 9 10 10 10 11 11 12 12 13 14 15
2 0 1 2 2 2 2 3 4 4 6 8 9 9 8 6 5 5 5 5 5 6 6 4 3 2 2 1 0 1 3 3 3 3 4 4 5 6 7 8 9 10 11 11 11 12 12 12 12 12 9 8 6 4 4 5 5 4 4 5 7 7 7 5 4 4 5 5 5 6 6 7 8 7 7 9 10 11 11 12 12 13 13 13 14 15 16
2 3 4 4 4 3 3 3 3 3 5 6 8 10 10 7 5 4 4 5 5 6 5 4 3 3 3 1 1 3 4 4 3 3 4 5 5 5 5 5 5 6 7 8 8 9 10 11 13 14 11 9 8 5 4 5 5 4 3 4 6 8 7 6 5 5 6 7 7 8 6 8 9 8 8 9 10 10 10 11 11 12 12 13 14 15 16
4 4 4 4 3 2 2 2 1 3 4 4 5 6 7 6 4 2 2 2 2 3 4 5 5 4 3 2 1 3 4 5 4 5 6 7 7 7 7 7 7 6 6 6 7 8 9 10 13 15 13 11 9 7 5 5 5 4 3 3 5 7 7 7 7 7 7 8 10 8 6 10 10 9 8 9 9 9 9 9 9 10 11 12 13 14 15
5 4 1 0 1 2 1 1 2 3 2 2 1 2 2 3 3 2 1 1 3 5 6 6 6 5 3 1 1 2 3 4 5 5 6 8 8 8 9 9 9 8 8 7 7 9 9 9 12 16 15 12 10 8 6 5 5 4 2 2 3 5 6 7 8 8 8 10 11 7 7 11 11 9 8 8 8 8 8 8 9 10 11 11 12 13 14
6 5 5 4 5 5 4 3 2 1 0 0 1 2 2 2 2 2 2 3 4 5 7 8 7 5 3 2 3 3 3 3 4 5 7 9 10 10 10 10 9 10 10 8 8 9 9 8 10 15 15 13 11 9 7 5 5 4 2 1 2 4 5 6 7 7 8 10 11 8 9 12 10 8 8 8 9 8 8 8 9 10 11 11 11 11 12
5 5 5 5 5 5 5 3 1 1 1 2 2 2 2 2 3 3 3 4 4 5 6 8 8 7 6 5 5 5 4 3 3 5 7 9 11 12 11 10 9 10 10 10 10 9 8 7 10 14 15 14 12 10 7 6 6 5 3 1 1 2 3 4 6 6 7 9 10 9 10 11 10 8 7 8 9 8 8 8 9 9 10 10 10 10 11
3 3 3 3 3 4 4 4 3 3 4 3 3 3 3 3 4 4 4 4 4 5 6 8 9 9 8 7 7 7 5 4 4 5 7 8 11 12 11 9 9 10 10 10 11 10 9 8 9 13 15 14 13 10 8 7 6 5 4 3 1 2 3 4 4 5 6 8 9 8 8 10 9 7 6 7 7 6 7 8 8 8 8 9 9 9 9
3 3 3 3 3 5 6 6 6 6 5 4 4 5 5 5 5 4 4 3 4 5 6 7 9 10 10 9 8 7 6 5 6 7 7 7 10 11 10 8 8 9 10 11 10 10 9 8 9 12 14 14 13 11 9 7 7 6 6 4 2 0 2 3 3 3 4 6 7 7 7 8 9 8 6 5 5 4 5 6 7 7 7 8 9 9 10
3 3 3 3 3 4 5 5 5 4 3 3 3 4 4 5 6 6 5 4 4 5 5 6 7 8 9 9 8 8 7 7 8 8 7 7 9 10 10 8 8 9 11 11 9 7 8 8 9 12 13 14 13 11 9 8 7 7 7 6 4 2 1 2 3 2 2 3 5 6 6 6 7 7 6 5 4 3 3 5 6 6 6 7 8 10 11
5 5 4 3 3 3 4 4 3 2 2 2 3 3 3 3 5 6 7 7 7 7 6 6 6 7 8 8 9 9 9 9 9 9 8 6 7 9 9 8 8 9 10 11 8 5 4 6 8 11 13 13 12 10 9 8 7 7 8 7 6 3 2 1 2 1 1 1 2 4 4 4 4 4 4 4 3 2 2 2 3 4 5 6 7 9 10
6 6 5 4 4 5 4 4 4 4 3 3 4 4 4 4 5 6 6 7 8 8 8 7 7 7 7 8 8 9 9 9 9 9 8 7 6 7 8 7 7 7 8 8 7 5 1 2 6 10 11 11 10 10 9 8 8 7 8 8 7 5 4 3 1 1 1 1 0 2 3 3 3 2 2 2 3 4 4 3 3 2 2 3 5 6 7
7 6 4 4 5 6 5 5 6 6 6 5 5 5 5 6 6 7 7 7 7 8 8 7 7 6 7 8 8 9 9 9 9 9 9 8 7 6 6 6 6 6 6 6 6 4 2 2 4 7 8 9 9 9 9 9 8 8 8 9 9 7 6 5 3 2 1 1 1 1 3 3 3 2 2 2 3 4 5 5 5 5 4 3 3 3 3
6 5 5 5 6 7 8 8 8 8 8 7 7 7 7 6 7 7 8 8 8 8 8 8 7 6 6 7 8 9 9 10 9 9 10 9 7 6 6 5 5 6 6 6 5 4 2 1 3 5 7 8 9 9 9 9 9 9 9 10 10 9 7 6 5 4 2 2 2 1 2 4 4 3 3 3 3 4 5 6 6 6 6 6 5 5 3
5 6 7 7 8 8 8 9 9 8 8 8 7 7 7 6 6 6 7 8 8 8 8 8 8 7 6 7 7 8 9 9 9 9 10 9 8 7 7 6 6 7 8 7 6 5 4 4 5 6 7 8 8 9 9 10 10 10 10 10 11 10 9 8 7 6 5 4 3 3 2 3 4 5 5 6 5 5 5 5 6 6 7 8 8 8 6
6 7 8 8 9 8 8 8 8 8 8 8 7 6 5 5 6 7 7 7 6 7 7 7 7 7 7 7 8 8 9 9 9 9 9 8 8 7 7 6 6 7 8 9 9 8 7 7 8 9 9 9 9 9 10 12 12 12 11 11 12 12 11 10 9 7 7 6 5 4 3 3 4 5 6 7 8 8 7 7 7 7 7 7 8 8 7
7 8 7 8 8 7 6 6 7 7 7 6 5 5 5 7 8 8 7 6 6 6 6 6 6 7 8 9 11 10 10 9 9 8 7 7 7 7 7 7 6 6 7 8 9 9 9 9 10 11 12 12 11 11 11 13 14 14 13 13 13 13 12 12 11 10 9 8 8 6 5 5 5 5 6 6 7 8 8 8 8 8 8 8 8 9 8
7 7 7 7 7 6 5 5 5 6 5 5 5 5 7 8 9 8 7 7 7 7 7 7 7 8 9 10 10 9 8 8 8 8 7 7 7 8 8 9 8 6 6 7 8 9 10 10 11 11 13 14 14 13 13 12 13 15 15 14 13 13 14 14 13 12 11 11 10 9 8 7 7 7 7 7 7 8 8 9 9 8 8 9 9 9 8
6 6 7 7 7 7 6 5 5 6 5 5 6 6 7 7 7 7 6 6 6 6 7 7 8 8 8 8 8 8 8 8 8 8 8 8 8 8 9 9 8 6 5 6 7 8 9 10 10 10 12 13 13 13 13 12 12 13 14 14 13 14 15 15 14 13 13 13 13 12 10 9 8 8 8 9 8 8 8 8 8 8 8 8 8 8 7
6 7 7 7 7 7 7 6 6 6 6 6 6 6 6 7 7 6 5 5 6 6 7 8 8 8 8 7 7 8 8 8 8 8 9 9 9 8 8 9 8 6 4 4 6 7 7 7 7 8 10 11 11 11 10 11 11 12 12 13 14 15 15 15 14 13 13 14 14 14 12 11 10 10 10 10 10 9 9 8 8 7 7 7 7 6 6
7 7 8 8 7 7 7 6 6 6 6 6 7 7 6 6 5 4 4 4 5 7 7 7 7 6 7 8 8 8 8 8 8 9 9 10 10 9 8 8 8 7 5 3 4 7 7 6 5 6 7 8 8 8 8 9 10 10 11 13 14 14 14 13 13 12 13 13 14 14 14 12 12 11 11 11 10 10 9 9 8 8 7 6 6 6 6
Wind_Direction
66 60 76 92 94 87 69 49 33 21 18 31 61 51 358 337 297 163 152 144 123 74 48 38 39 56 69 73 75 78 80 80 85 90 87 81 80 85 93 98 103 107 109 110 105 101 109 123 134 145 163 172 169 174 175 163 159 168 175 180 188 195 197 201 204 203 198 193 191 194 195 193 192 186 179 178 177 174 165 153 149 149 157 177 182 178 179
57 44 69 106 112 94 68 52 38 32 40 52 62 53 26 31 66 104 120 114 86 53 48 47 51 64 73 77 77 73 72 74 80 85 84 79 77 81 89 99 108 113 113 112 111 111 116 121 128 141 156 164 167 171 170 166 167 171 175 179 187 194 194 196 199 199 198 194 191 193 197 198 197 189 176 171 175 178 173 162 158 154 151 165 176 175 178
58 29 42 99 113 103 76 50 31 27 37 46 47 37 23 41 80 103 106 98 80 57 64 69 72 73 71 67 65 64 64 68 76 80 78 77 79 82 89 100 109 116 116 114 115 114 112 116 126 135 142 149 156 162 166 169 170 173 179 185 191 195 196 198 198 195 196 197 196 199 201 203 202 194 185 184 191 197 191 173 162 157 153 158 168 171 175
113 17 15 50 102 111 82 44 19 10 16 26 28 26 14 21 91 122 119 100 95 103 92 81 74 73 72 66 62 64 65 66 72 75 74 74 78 82 90 99 107 114 115 115 116 114 111 115 122 126 133 141 141 139 141 148 156 168 182 192 197 196 194 196 195 194 197 200 203 207 208 212 221 222 217 219 222 219 208 194 184 176 168 166 169 174 178
146 11 346 342 193 164 101 28 358 350 359 0 353 26 19 1 7 147 141 113 112 124 112 91 77 74 75 72 67 66 70 74 73 72 74 77 78 83 92 99 104 108 110 111 113 112 112 113 115 118 127 136 129 120 119 125 134 150 168 180 187 188 192 195 196 201 204 206 212 216 216 220 228 228 219 214 212 210 209 210 210 207 201 195 192 196 200
134 28 339 284 211 201 157 10 342 345 6 20 44 51 23 14 52 102 106 112 114 111 105 99 92 83 78 79 78 74 75 82 84 80 79 82 85 89 95 101 104 105 107 108 110 111 111 109 110 117 125 128 123 117 120 128 130 135 141 141 136 146 167 179 187 199 205 208 214 216 212 208 205 198 195 200 205 210 215 218 215 215 221 223 219 220 224
102 103 219 200 198 177 151 112 8 357 0 19 53 71 38 44 91 102 104 112 111 105 103 102 99 92 87 82 77 76 78 84 90 90 87 88 91 91 95 100 102 103 105 106 107 109 110 109 111 116 118 118 120 123 127 131 127 121 120 116 112 115 125 135 149 172 181 188 194 195 192 190 189 193 199 205 212 216 217 216 211 212 222 229 230 233 236
113 135 119 142 127 93 152 128 24 9 333 347 13 69 48 45 88 110 112 115 116 116 113 109 104 98 91 80 70 72 80 83 88 91 90 92 94 92 93 97 97 96 97 99 100 104 107 108 108 109 108 108 112 115 118 120 119 120 123 118 111 113 120 127 139 154 162 169 173 175 179 184 192 200 203 208 212 213 216 218 212 210 218 225 229 232 233
121 119 87 109 148 124 108 54 17 11 335 330 318 332 32 33 94 125 126 128 129 126 123 122 118 102 89 76 61 66 81 87 89 91 92 94 95 93 95 97 96 95 94 94 95 97 99 100 101 102 106 107 108 108 107 108 111 116 119 115 111 112 116 118 123 132 143 152 157 161 171 180 191 200 205 209 206 199 202 209 209 212 217 219 222 225 227
4 130 114 131 170 123 46 359 357 349 310 295 267 249 350 48 121 137 140 138 138 138 138 142 140 108 83 74 64 77 88 94 96 94 93 94 93 91 93 96 97 97 96 95 95 95 95 95 95 96 100 104 107 106 103 103 105 106 105 104 105 108 111 112 115 117 122 129 136 148 169 179 187 196 204 209 205 193 195 204 211 219 222 222 225 228 230
56 113 114 105 107 89 10 338 328 325 314 283 242 226 32 104 140 147 145 142 146 151 150 158 179 132 88 106 125 106 99 98 99 98 95 93 90 87 86 88 91 92 93 93 94 95 93 90 91 95 97 99 101 100 98 98 99 98 97 98 99 102 104 107 110 111 112 115 122 136 153 159 167 180 187 192 198 198 200 206 215 220 221 226 235 237 240
75 85 93 81 73 62 4 329 318 320 319 264 217 207 53 118 154 155 151 150 154 158 161 171 253 19 125 146 144 126 110 101 98 96 94 92 90 86 81 79 82 85 87 88 87 86 82 78 79 85 92 99 97 92 93 96 92 88 88 89 91 95 99 101 104 106 109 111 115 123 130 133 140 151 154 157 173 189 199 208 221 232 236 247 255 256 259
54 69 96 94 84 55 342 323 318 319 307 218 200 29 15 147 170 162 158 159 159 161 177 199 49 101 130 137 135 128 116 108 102 96 93 91 89 87 81 76 76 77 77 76 73 71 69 68 68 66 70 87 84 75 79 86 80 74 72 74 77 81 85 91 95 97 102 105 108 116 126 131 139 150 156 165 179 195 209 216 224 237 248 256 263 267 269
27 53 89 94 113 63 342 328 325 333 316 220 341 349 326 282 183 166 157 159 163 166 172 133 121 124 129 131 130 126 119 113 106 100 96 91 86 84 78 73 70 70 69 68 67 65 62 61 62 57 53 65 67 61 64 71 70 68 66 66 66 67 71 76 78 79 84 84 86 100 121 153 187 218 233 236 240 245 251 252 252 256 259 261 264 268 272
18 61 54 58 108 8 347 339 340 13 9 311 319 330 327 185 162 160 149 150 165 158 129 125 127 129 130 129 126 122 118 113 105 99 95 89 84 81 77 72 66 64 67 67 66 66 64 61 61 55 46 51 57 57 63 67 66 66 65 64 62 61 63 66 66 69 71 68 68 56 345 255 249 256 257 256 257 260 263 265 265 267 268 270 272 274 277
17 60 52 41 3 341 347 351 353 346 337 318 315 329 20 120 142 152 141 133 151 147 135 130 129 131 130 127 124 121 116 112 105 100 97 93 90 87 82 79 73 67 70 72 71 72 71 68 69 64 57 58 62 64 68 69 67 65 63 61 58 53 53 57 56 55 51 44 31 358 326 300 290 284 277 275 273 270 269 269 269 270 271 272 273 274 275
59 71 70 46 8 359 360 10 7 334 350 2 359 49 101 102 109 129 131 129 138 142 137 132 131 132 131 129 128 124 118 112 107 105 103 100 97 93 88 86 81 76 79 82 84 85 83 80 81 80 76 78 82 81 78 75 71 68 65 62 58 55 52 50 44 38 29 15 0 345 324 306 300 294 289 287 283 280 279 277 275 274 273 271 271 271 272
97 78 60 38 26 23 22 36 49 57 60 53 63 99 102 96 100 114 123 127 131 133 132 132 133 134 133 132 130 127 122 117 113 111 109 106 102 99 96 94 91 88 89 89 89 89 87 85 85 86 84 84 85 84 82 77 71 68 64 61 59 58 54 49 42 34 24 13 5 355 340 329 320 307 301 298 294 292 292 289 286 285 283 281 280 279 279
137 77 46 29 34 38 42 60 69 72 76 77 85 99 104 106 110 115 123 127 127 125 125 129 132 134 135 135 134 132 129 125 120 117 115 114 112 108 104 103 101 101 100 97 93 90 87 85 83 82 82 81 80 80 78 74 68 62 57 54 53 51 49 45 40 36 30 22 16 9 4 5 4 359 354 342 329 325 322 314 310 308 306 304 302 301 301
68 68 50 53 67 68 67 76 80 82 85 88 92 101 110 113 112 113 119 123 121 120 119 121 126 132 137 139 139 137 135 130 126 121 118 118 117 112 108 106 107 108 106 103 98 93 89 86 84 82 80 79 78 77 75 70 66 61 55 51 48 45 43 39 36 35 35 33 32 29 27 26 24 24 19 6 356 353 348 341 337 333 330 326 321 320 320
82 87 106 106 89 77 72 79 89 94 91 91 94 99 102 104 106 108 112 113 112 113 112 111 116 125 134 139 138 137 135 130 125 120 117 116 116 111 107 107 109 110 108 103 99 95 90 86 84 83 82 80 78 75 72 68 63 58 53 50 47 45 43 40 38 39 41 43 48 52 50 44 38 34 29 20 12 6 359 354 350 346 343 341 338 339 342
92 92 146 161 107 83 87 96 100 100 94 91 97 98 94 94 98 103 108 110 110 110 110 113 116 119 123 129 131 130 130 127 123 120 118 116 113 107 101 99 100 103 103 99 95 93 90 86 84 84 83 81 79 74 70 65 59 54 49 46 44 43 41 40 42 45 49 53 57 60 59 53 46 40 34 28 22 16 10 6 1 359 360 357 352 352 358
84 103 141 146 119 109 120 119 113 108 99 95 98 99 97 96 96 96 98 103 108 111 115 121 122 116 113 118 123 127 131 133 131 129 127 125 122 113 104 98 93 91 93 94 93 93 90 86 84 84 82 80 76 71 66 60 54 48 43 39 37 35 33 32 34 38 44 50 53 55 57 57 55 51 44 33 23 16 12 10 9 9 9 7 3 1 3
96 110 128 134 128 126 132 133 126 120 111 103 101 101 101 102 101 98 95 96 101 107 113 122 126 116 108 110 115 117 127 140 147 146 145 145 141 132 123 115 106 97 93 89 87 94 96 89 83 83 81 78 73 67 61 55 47 40 35 32 29 28 27 26 27 33 41 47 52 54 53 54 58 60 55 45 33 23 17 15 18 22 23 21 16 10 5
101 106 120 133 133 130 129 127 123 120 116 108 104 103 103 101 101 101 100 101 106 110 115 125 129 119 105 102 99 91 95 134 168 176 173 169 164 155 145 136 127 116 108 98 87 93 107 109 96 83 79 76 72 68 60 51 43 36 31 28 26 25 26 29 34 42 49 51 52 53 51 50 50 50 47 43 40 38 35 30 28 32 37 36 30 22 15
92 103 114 122 124 122 120 119 114 113 113 107 103 108 108 102 101 102 102 107 117 120 121 126 127 120 109 100 85 60 49 86 185 203 202 195 186 178 169 159 148 136 124 110 92 99 125 132 120 88 72 67 63 62 57 50 42 33 28 27 26 25 29 38 48 53 55 51 45 42 42 42 40 37 35 35 36 43 53 52 44 40 40 38 32 26 22
101 109 111 115 122 121 119 120 119 116 115 110 107 110 111 107 108 110 110 116 127 131 128 125 120 115 109 94 59 26 19 37 202 219 218 212 204 195 188 182 174 166 159 126 82 107 154 157 153 99 67 61 55 54 53 49 40 30 23 23 25 27 32 42 52 54 50 44 38 34 35 37 37 35 35 36 36 39 45 49 49 48 44 38 33 28 25
110 103 77 84 140 143 132 126 128 128 128 127 123 121 120 117 115 116 122 131 141 145 141 129 112 100 97 73 30 23 43 58 65 110 173 204 210 204 200 198 196 196 211 240 330 101 183 190 203 238 19 51 46 43 43 41 36 27 20 18 22 27 35 43 49 54 52 45 39 35 34 38 40 40 39 40 40 40 39 41 46 54 55 50 41 34 29
105 68 34 52 139 153 143 129 140 151 159 163 163 161 153 144 133 130 141 153 162 166 158 143 122 102 83 47 30 51 70 72 75 88 99 110 182 199 203 206 205 207 226 247 264 279 224 217 226 240 258 339 26 28 27 27 28 24 18 15 16 23 32 42 49 53 52 46 40 36 36 43 49 51 48 44 40 39 40 42 47 55 60 58 48 36 28
93 46 34 63 137 161 160 147 164 187 204 207 211 214 205 186 172 179 197 205 204 199 191 178 156 114 62 38 51 76 80 73 78 99 112 124 168 199 212 219 220 227 240 250 258 265 266 260 256 253 254 259 304 1 7 6 14 21 18 12 10 11 18 40 53 52 45 40 36 33 37 52 64 64 57 48 43 41 42 44 45 47 47 44 35 29 24
155 63 46 67 126 180 198 189 194 205 210 215 224 232 229 225 224 232 242 245 233 216 208 205 193 140 85 66 74 79 66 41 31 310 230 226 223 227 232 234 236 241 246 250 255 255 254 257 260 257 252 248 257 311 343 346 356 11 14 9 6 4 4 14 48 44 30 26 26 29 40 65 80 75 63 53 49 47 45 44 44 45 46 44 40 36 34
156 131 82 73 92 243 266 267 248 234 228 228 234 242 245 245 254 268 281 282 255 227 216 211 190 135 116 122 106 21 332 324 317 303 291 279 267 262 258 252 247 245 246 250 254 255 254 253 251 248 242 234 239 276 319 329 337 353 6 6 4 2 0 2 19 20 3 358 8 24 48 80 88 78 66 59 57 54 52 54 58 58 57 55 51 48 47
131 301 306 309 296 287 298 286 266 262 259 251 249 252 253 254 261 272 284 288 266 238 223 210 182 157 159 168 152 326 319 327 335 330 321 308 288 279 276 270 263 258 255 254 254 256 257 250 242 238 233 224 226 253 296 313 323 337 356 2 3 3 0 1 5 358 346 341 353 16 53 90 94 82 74 71 67 65 65 67 69 67 62 59 57 55 54
339 305 293 288 281 288 312 307 280 286 296 284 269 260 254 249 254 265 277 280 266 243 220 196 182 183 192 199 303 327 328 338 350 355 356 357 354 348 336 319 301 286 274 265 259 260 259 248 235 229 224 216 217 235 273 299 312 325 344 357 3 6 7 8 9 2 355 354 0 17 61 101 102 90 87 85 79 76 76 75 73 69 66 64 62 58 55
347 314 287 274 267 284 316 334 329 317 309 298 285 266 250 241 236 236 251 266 249 212 192 189 197 205 208 223 304 330 338 345 348 344 341 343 350 354 350 344 335 318 298 282 270 267 265 249 231 222 216 210 211 222 251 282 294 307 329 349 359 10 20 25 25 22 21 15 9 20 90 120 112 96 93 91 85 84 83 80 75 72 70 70 66 59 53
12 15 26 60 17 351 334 324 334 331 310 279 196 152 185 217 233 237 224 189 177 181 190 201 210 207 194 202 297 328 347 351 348 340 330 328 332 335 333 334 334 325 315 302 280 266 264 251 227 217 210 205 205 214 238 266 278 287 308 334 351 11 29 35 30 29 31 24 16 31 115 128 114 100 97 94 91 91 86 80 77 73 71 72 69 60 51
27 42 61 54 27 11 2 340 295 266 244 40 111 133 154 211 248 253 227 209 202 203 207 213 219 217 208 225 271 292 322 340 340 332 324 321 323 325 325 327 328 322 314 307 287 269 264 252 226 213 205 200 201 212 230 253 266 271 274 300 345 8 31 37 31 31 35 30 27 50 107 118 108 102 103 100 98 97 89 79 76 73 71 73 71 61 51
45 48 46 34 17 8 6 2 320 250 331 331 292 233 224 254 261 256 243 234 235 234 230 228 233 238 241 250 269 284 296 303 306 315 320 319 320 323 326 327 324 315 308 303 294 279 267 248 221 208 201 197 200 209 223 245 259 262 250 237 330 9 33 42 37 35 40 39 39 61 101 114 111 106 106 104 102 98 88 82 79 75 72 73 70 61 52
38 26 15 7 353 337 329 326 320 322 329 316 267 246 258 277 273 263 249 241 247 255 252 247 246 249 253 260 273 288 294 280 274 293 310 318 321 324 327 327 321 315 311 308 298 284 270 249 220 205 199 196 198 206 221 239 250 249 236 215 195 24 30 40 42 40 44 49 49 61 93 115 120 115 108 107 105 98 90 88 87 81 76 74 70 63 57
356 348 340 330 321 314 309 305 302 307 314 308 284 273 271 268 260 250 237 239 256 264 262 257 251 249 252 261 278 292 287 264 261 279 298 314 322 324 325 326 325 326 329 324 303 277 262 248 224 206 198 195 197 205 219 234 242 241 231 214 192 84 17 26 41 44 46 55 58 61 78 109 126 132 131 125 115 102 95 93 90 83 76 73 70 67 63
323 324 329 329 329 332 326 316 306 301 303 304 295 280 264 255 250 242 235 244 261 263 258 256 253 249 250 259 275 284 275 260 262 276 288 307 322 324 323 324 326 333 340 339 321 283 258 245 225 206 198 196 199 206 218 230 238 234 225 215 202 193 349 11 31 41 42 57 69 70 75 94 119 135 142 141 136 124 107 97 90 83 79 78 76 71 67
301 299 297 298 309 327 333 333 334 327 298 289 293 298 286 267 255 247 243 250 261 265 261 256 253 252 254 262 270 272 267 262 267 275 280 295 318 325 326 325 326 331 340 346 345 324 271 238 215 201 197 199 204 209 217 227 234 231 222 215 208 207 240 317 3 26 26 44 78 86 84 86 103 124 135 144 159 180 171 132 111 92 85 87 85 78 72
299 296 285 275 279 288 298 311 320 318 302 287 284 284 278 266 261 262 264 264 267 270 271 267 264 262 262 265 269 271 269 268 271 276 278 285 306 322 325 325 326 332 340 347 354 1 14 187 190 191 197 204 209 213 220 228 232 229 221 215 211 217 236 255 284 341 357 339 170 142 124 112 119 134 149 173 204 225 226 206 181 159 126 108 99 89 81
299 293 283 273 274 276 277 284 293 297 294 285 276 273 272 267 263 267 272 274 274 274 272 270 271 273 272 271 273 275 275 272 271 274 277 279 290 309 319 321 327 338 346 350 351 357 31 139 174 190 203 214 221 226 231 235 236 232 224 215 213 220 232 239 242 257 325 355 326 210 193 180 163 154 166 201 222 233 237 234 224 217 207 181 143 122 106
307 303 295 287 283 281 280 283 288 290 289 283 277 277 281 279 272 269 268 269 272 274 271 264 260 266 277 283 282 279 276 272 268 270 276 278 280 289 301 308 314 324 334 340 339 330 309 243 219 222 229 236 239 239 240 239 238 236 229 218 214 219 229 234 235 237 249 310 342 319 223 208 203 202 211 221 221 224 230 234 235 234 231 225 215 208 203
326 327 323 317 309 300 293 292 291 291 290 287 285 285 285 280 277 276 272 266 266 271 270 259 250 252 268 283 285 282 278 273 269 269 274 276 276 280 287 293 298 303 309 313 312 301 278 257 250 249 252 254 252 248 245 243 242 240 232 222 216 217 224 229 232 235 244 265 298 322 300 243 225 222 227 231 231 226 221 224 232 240 244 245 243 238 230
337 337 333 327 319 309 301 297 296 296 294 291 289 290 290 285 281 278 273 264 261 264 262 253 246 248 261 274 279 278 275 272 270 270 273 273 272 272 275 280 288 295 297 297 295 290 279 263 252 248 250 256 259 258 253 248 244 242 237 228 219 217 221 227 231 235 243 253 263 280 292 280 254 240 237 236 235 231 227 225 230 238 243 249 254 254 249
335 335 334 333 328 316 300 293 296 302 303 295 284 280 284 286 285 281 275 267 259 255 255 256 257 263 271 279 281 278 271 267 267 270 272 270 268 264 262 266 276 289 295 292 287 283 281 276 264 252 247 250 258 264 263 254 246 242 239 234 225 220 222 227 230 233 239 247 253 260 269 271 263 253 247 242 239 236 234 235 239 241 242 245 250 253 253
331 332 336 341 340 330 312 296 295 298 296 286 277 280 288 292 290 285 281 276 268 261 261 264 268 273 279 284 282 274 262 259 265 274 277 275 270 266 263 264 268 283 302 303 289 278 279 283 276 260 249 248 254 262 265 259 248 241 238 236 229 222 221 225 230 233 234 237 240 245 251 256 254 248 243 243 243 240 238 240 244 246 247 251 253 253 252
323 327 333 337 336 332 323 311 300 295 289 281 277 284 297 304 299 288 281 282 282 276 272 272 275 281 286 287 282 270 262 263 271 280 282 280 275 271 268 265 263 272 306 321 312 295 287 286 278 263 252 249 252 258 260 254 245 240 238 233 225 219 220 226 231 234 233 232 231 232 237 244 247 243 239 239 241 240 239 241 245 245 245 248 251 254 258
314 316 322 327 329 329 326 317 303 293 286 280 278 284 299 308 303 288 276 279 285 285 284 284 282 280 281 282 280 276 273 275 279 282 282 281 277 275 274 271 263 256 273 319 334 330 315 297 280 265 254 248 246 246 245 240 235 233 228 221 215 216 222 229 234 236 235 232 228 225 226 232 238 240 238 237 238 239 239 241 246 247 244 244 247 254 260
312 314 318 324 328 331 331 326 316 305 294 283 277 279 288 299 302 294 283 284 290 296 301 305 301 288 279 277 278 279 281 284 286 287 286 283 278 275 277 275 263 243 234 270 329 343 342 325 295 271 256 246 237 232 227 222 218 213 209 208 211 216 224 232 236 237 235 231 226 222 222 225 231 236 238 238 239 240 240 241 246 253 256 257 260 262 262